sat.trackr.live / text

‹ back to catalog

STARLINK-3355

NORAD 50808 · 2022-001F

PAYLOAD ACTIVE UNKNOWN

§ Identity

Operator
Country
US
Launch date
2022-01-06
Launch site
AFETR
Launch vehicle
Mass (kg)
RCS (m²)

Purposes: comms

External: N2YO · Heavens-Above · Gunter

§ Orbital elements

Epoch: 2026-05-25T02:45:57.764160Z

Period
95.44 min
Inclination
53.2113°
Eccentricity
0.0000955
Mean motion
15.08837998 rev/d
Perigee alt
539.1 km
Apogee alt
540.4 km
Semi-major
6,917.9 km
B*
-4.7423e-5
RAAN
176.0325°
Arg perigee
78.1942°
Mean anomaly
281.9157°
Rev number
24,208

§ Raw data

STARLINK-33551 50808U 22001F   26145.11525190 -.00001042  00000+0 -47423-4 0  99902 50808  53.2113 176.0325 0000955  78.1942 281.9157 15.08837998242089

JSON: /api/v1/satellites/50808 · /tle

For live sub-satellite position, see the globe view (requires WebGL).

§ Visibility from observer

Set your observer location to see the next 7 days of passes ≥ 10°. The values pass through the URL so the page stays shareable.

No JS? Fill the form by hand. The geolocation button needs JavaScript.